2021/02/04 23:29:55+0000,-40.07,-47.60,-35.30,-26.79,-53.56,-54.72
2021/02/04 23:30:47+0000,-40.25,-47.08,-34.03,-49.77,-54.35,-53.89
2021/02/04 23:31:45+0000,-40.69,-46.07,-35.15,-50.94,-54.33,-54.33
2021/02/04 23:32:37+0000,-40.06,-48.79,-34.33,-51.88,-54.19,-54.63
2021/02/04 23:33:29+0000,-39.87,-48.55,-34.77,-26.91,-53.95,-54.78
2021/02/04 23:34:21+0000,-39.85,-47.27,-34.80,-27.36,-54.21,-54.62
2021/02/04 23:35:13+0000,-39.61,-48.29,-35.18,-51.43,-54.05,-54.44
2021/02/04 23:36:05+0000,-40.06,-46.79,-33.99,-52.80,-54.25,-53.77
2021/02/04 23:36:57+0000,-40.48,-46.84,-35.01,-27.31,-53.78,-54.49
2021/02/04 23:37:49+0000,-39.80,-47.66,-35.37,-53.57,-54.10,-55.06
2021/02/04 23:38:41+0000,-39.21,-46.37,-34.66,-51.95,-52.90,-54.35
2021/02/04 23:39:33+0000,-40.01,-48.49,-34.81,-25.82,-52.91,-54.53
2021/02/04 23:40:26+0000,-39.68,-48.26,-35.08,-27.38,-52.93,-55.33
2021/02/04 23:41:29+0000,-39.88,-49.24,-35.12,-27.22,-52.44,-54.56
2021/02/04 23:42:21+0000,-39.94,-48.78,-35.06,-27.29,-53.78,-54.61
2021/02/04 23:43:13+0000,-39.84,-47.86,-34.91,-51.26,-53.01,-54.86
2021/02/04 23:44:06+0000,-40.54,-47.11,-35.34,-52.68,-53.10,-55.08
2021/02/04 23:44:58+0000,-41.70,-47.17,-35.68,-26.81,-53.74,-54.42
2021/02/04 23:45:50+0000,-41.24,-46.71,-35.71,-53.62,-53.50,-54.39
2021/02/04 23:46:42+0000,-40.86,-47.57,-35.50,-51.95,-53.42,-54.67
2021/02/04 23:47:34+0000,-40.98,-47.71,-35.24,-27.49,-53.87,-54.87
2021/02/04 23:48:26+0000,-40.56,-47.09,-35.78,-27.06,-53.69,-54.48
2021/02/04 23:49:18+0000,-40.18,-47.90,-35.28,-50.23,-52.72,-54.95
2021/02/04 23:50:10+0000,-40.94,-48.12,-35.56,-49.37,-53.87,-54.40
2021/02/04 23:51:11+0000,-40.78,-47.62,-35.91,-51.30,-53.90,-54.69
2021/02/04 23:52:03+0000,-40.18,-48.69,-35.66,-27.38,-53.35,-55.10
2021/02/04 23:52:55+0000,-39.54,-47.13,-34.75,-27.59,-53.86,-54.59
2021/02/04 23:53:47+0000,-40.52,-47.59,-35.26,-49.93,-54.12,-54.64
2021/02/04 23:54:40+0000,-40.29,-48.15,-35.32,-51.27,-53.49,-54.16
2021/02/04 23:55:32+0000,-40.72,-48.70,-35.41,-26.64,-53.38,-54.84
2021/02/04 23:56:24+0000,-40.26,-49.29,-34.87,-48.03,-53.80,-54.54
2021/02/04 23:57:16+0000,-40.14,-46.22,-34.75,-49.65,-53.59,-53.66
2021/02/04 23:58:08+0000,-40.33,-49.40,-34.88,-50.05,-53.26,-54.23
2021/02/04 23:59:00+0000,-40.86,-48.32,-35.76,-49.16,-53.68,-54.29
2021/02/04 23:59:52+0000,-40.93,-48.52,-34.59,-50.02,-53.22,-54.11
2021/02/05 00:00:52+0000,-40.17,-49.32,-34.66,-27.38,-53.55,-54.94
2021/02/05 00:02:06+0000,-39.96,-47.61,-35.24,-50.51,-53.94,-54.58
2021/02/05 00:02:58+0000,-40.59,-48.96,-36.01,-26.70,-53.85,-54.18
2021/02/05 00:03:50+0000,-40.26,-49.42,-35.07,-50.85,-53.41,-54.74
2021/02/05 00:04:42+0000,-41.30,-46.23,-35.38,-51.97,-53.93,-54.62
2021/02/05 00:05:34+0000,-40.64,-47.27,-35.13,-53.51,-54.12,-54.73
2021/02/05 00:06:26+0000,-40.71,-48.51,-35.73,-50.66,-53.23,-54.37
2021/02/05 00:07:18+0000,-40.19,-46.44,-35.20,-53.08,-52.95,-54.91
2021/02/05 00:08:10+0000,-40.50,-47.71,-35.17,-49.63,-53.55,-54.92
2021/02/05 00:09:02+0000,-39.59,-48.51,-35.05,-50.56,-53.65,-54.50
2021/02/05 00:09:54+0000,-40.09,-49.02,-35.57,-48.47,-53.95,-54.92
2021/02/05 00:10:46+0000,-40.69,-47.03,-35.37,-48.13,-54.00,-55.17
2021/02/05 00:11:56+0000,-40.39,-48.17,-35.75,-26.83,-54.13,-55.13
2021/02/05 00:12:48+0000,-39.99,-47.29,-35.19,-53.33,-54.66,-54.60
2021/02/05 00:13:40+0000,-40.70,-48.77,-35.15,-48.01,-54.18,-54.90
2021/02/05 00:14:32+0000,-40.42,-47.82,-35.70,-53.65,-54.19,-54.63
2021/02/05 00:15:24+0000,-40.27,-48.48,-35.63,-66.34,-53.71,-54.69
2021/02/05 00:16:17+0000,-40.58,-48.24,-35.81,-50.73,-53.51,-54.98
2021/02/05 00:17:09+0000,-40.23,-47.70,-34.66,-68.04,-53.99,-54.46
2021/02/05 00:18:01+0000,-41.07,-47.80,-35.08,-50.62,-54.10,-54.27
2021/02/05 00:18:53+0000,-40.80,-48.39,-35.25,-68.81,-53.11,-54.54
2021/02/05 00:19:45+0000,-41.29,-47.98,-35.06,-51.97,-52.82,-54.90
2021/02/05 00:20:37+0000,-41.32,-50.30,-34.71,-67.86,-54.12,-54.55
2021/02/05 00:21:42+0000,-39.62,-49.52,-35.84,-49.97,-54.14,-55.52
2021/02/05 00:22:34+0000,-40.46,-48.50,-35.10,-52.23,-54.30,-55.29
2021/02/05 00:23:26+0000,-41.58,-48.62,-35.04,-50.10,-54.29,-55.63
2021/02/05 00:24:18+0000,-41.40,-47.73,-34.69,-53.16,-53.66,-55.25
2021/02/05 00:25:10+0000,-41.41,-48.37,-34.90,-47.57,-53.21,-55.25
2021/02/05 00:26:02+0000,-40.40,-49.36,-35.13,-50.17,-53.84,-55.53
2021/02/05 00:26:54+0000,-41.14,-46.56,-34.05,-50.12,-53.66,-55.52
2021/02/05 00:27:46+0000,-41.54,-47.91,-35.57,-49.38,-54.32,-55.55
2021/02/05 00:28:38+0000,-40.89,-47.31,-35.67,-51.13,-54.48,-55.27
2021/02/05 00:29:30+0000,-40.93,-47.45,-35.10,-50.63,-52.83,-55.46
2021/02/05 00:30:23+0000,-39.92,-49.49,-36.02,-51.34,-54.29,-55.60
2021/02/05 00:31:22+0000,-40.45,-50.35,-34.96,-51.29,-54.57,-55.46
2021/02/05 00:32:15+0000,-40.75,-47.20,-35.35,-44.73,-53.78,-55.19
2021/02/05 00:33:07+0000,-40.06,-50.20,-35.21,-49.24,-54.06,-56.01
2021/02/05 00:33:59+0000,-39.67,-48.45,-35.71,-51.91,-54.08,-55.51
2021/02/05 00:34:51+0000,-40.42,-48.73,-35.10,-52.47,-54.21,-54.94
2021/02/05 00:35:43+0000,-40.55,-48.97,-35.00,-48.65,-54.37,-55.48
2021/02/05 00:36:35+0000,-40.05,-47.79,-34.35,-52.93,-54.08,-55.29
2021/02/05 00:37:27+0000,-40.46,-49.03,-35.88,-52.01,-53.37,-49.94
2021/02/05 00:38:19+0000,-40.21,-46.91,-35.49,-51.88,-47.80,-51.51
2021/02/05 00:39:11+0000,-40.94,-47.15,-34.00,-48.68,-50.42,-54.88
2021/02/05 00:40:03+0000,-40.15,-49.25,-34.37,-50.00,-54.74,-55.35
2021/02/05 00:41:04+0000,-40.33,-48.74,-34.46,-52.99,-54.64,-56.02
2021/02/05 00:41:56+0000,-40.78,-48.64,-35.28,-51.14,-55.27,-56.40
2021/02/05 00:42:48+0000,-40.86,-47.07,-34.60,-49.58,-53.21,-55.53
2021/02/05 00:43:40+0000,-40.39,-48.26,-34.45,-50.03,-54.08,-56.03
2021/02/05 00:44:32+0000,-39.73,-48.94,-35.67,-51.63,-54.02,-55.74
2021/02/05 00:45:24+0000,-39.71,-46.86,-34.36,-51.69,-53.63,-55.34
2021/02/05 00:46:16+0000,-40.57,-48.10,-35.00,-51.12,-54.55,-55.46
2021/02/05 00:47:08+0000,-40.05,-50.36,-34.83,-49.87,-54.14,-55.71
2021/02/05 00:48:00+0000,-40.30,-48.39,-35.08,-49.90,-54.15,-55.42
2021/02/05 00:48:52+0000,-39.39,-48.18,-35.10,-51.95,-54.13,-55.79
2021/02/05 00:49:44+0000,-38.14,-47.46,-35.33,-48.71,-54.20,-55.84
2021/02/05 00:50:36+0000,-39.25,-47.70,-35.11,-50.69,-54.79,-55.55
2021/02/05 00:51:36+0000,-39.16,-50.05,-35.00,-52.43,-53.52,-55.39
2021/02/05 00:52:28+0000,-39.97,-47.62,-35.58,-52.85,-53.53,-55.63
2021/02/05 00:53:20+0000,-39.71,-48.32,-35.93,-53.35,-54.51,-55.52
2021/02/05 00:54:12+0000,-40.03,-46.85,-35.75,-51.71,-53.31,-55.63
2021/02/05 00:55:04+0000,-39.13,-48.00,-35.57,-53.18,-54.71,-55.73
2021/02/05 00:55:56+0000,-38.85,-49.23,-35.62,-52.52,-53.34,-55.55
2021/02/05 00:56:48+0000,-38.29,-47.07,-35.36,-51.41,-53.22,-55.74
2021/02/05 00:57:40+0000,-38.72,-47.02,-35.36,-52.76,-54.36,-55.55
2021/02/05 00:58:33+0000,-38.78,-48.09,-35.64,-52.32,-54.40,-55.88
2021/02/05 00:59:25+0000,-39.24,-48.10,-36.34,-51.74,-54.65,-55.10
2021/02/05 01:00:17+0000,-40.18,-46.97,-36.32,-51.63,-54.69,-56.00
2021/02/05 01:01:18+0000,-39.38,-47.61,-36.51,-53.52,-54.76,-55.19
2021/02/05 01:02:10+0000,-39.47,-47.74,-35.27,-52.35,-54.62,-55.43
2021/02/05 01:03:02+0000,-39.41,-48.10,-36.01,-53.67,-53.59,-55.12
2021/02/05 01:03:54+0000,-39.10,-49.28,-35.82,-53.29,-54.69,-55.49
2021/02/05 01:04:46+0000,-39.53,-48.00,-36.27,-52.10,-54.59,-55.84
2021/02/05 01:05:38+0000,-39.98,-39.95,-35.34,-52.84,-53.99,-54.98
2021/02/05 01:06:30+0000,-39.46,-48.23,-35.82,-53.14,-54.59,-55.58
2021/02/05 01:07:22+0000,-40.53,-48.14,-35.40,-53.01,-54.97,-55.16
2021/02/05 01:08:14+0000,-40.81,-47.66,-35.65,-52.84,-53.74,-55.66
2021/02/05 01:09:06+0000,-40.08,-50.20,-36.70,-53.30,-54.97,-55.16
2021/02/05 01:09:58+0000,-40.24,-45.76,-35.75,-53.38,-54.61,-55.41
2021/02/05 01:10:50+0000,-40.45,-48.70,-36.87,-52.75,-54.51,-55.62
2021/02/05 01:11:50+0000,-34.23,-47.68,-35.99,-53.07,-54.52,-55.76
2021/02/05 01:12:42+0000,-39.56,-46.97,-36.26,-52.73,-54.30,-55.26
2021/02/05 01:13:34+0000,-39.46,-46.87,-35.59,-52.87,-54.19,-55.82
2021/02/05 01:14:26+0000,-40.09,-47.09,-36.07,-52.49,-53.66,-55.03
2021/02/05 01:15:18+0000,-39.20,-45.09,-35.53,-53.17,-54.63,-56.02
2021/02/05 01:16:10+0000,-40.00,-47.35,-36.04,-52.74,-54.48,-55.66
2021/02/05 01:17:02+0000,-39.34,-49.21,-36.00,-52.90,-54.39,-55.24
2021/02/05 01:17:54+0000,-39.16,-48.19,-35.74,-53.81,-54.09,-55.32
2021/02/05 01:18:46+0000,-39.01,-46.74,-35.38,-52.77,-53.69,-56.00
2021/02/05 01:19:39+0000,-39.22,-46.86,-36.21,-52.93,-54.40,-55.67
2021/02/05 01:20:31+0000,-39.06,-48.15,-36.07,-53.47,-54.60,-55.25
2021/02/05 01:21:31+0000,-39.31,-48.74,-35.99,-52.98,-54.91,-55.40
2021/02/05 01:22:23+0000,-38.80,-50.16,-36.23,-53.38,-54.54,-54.70
2021/02/05 01:23:15+0000,-39.00,-48.92,-35.02,-52.61,-54.13,-55.46
2021/02/05 01:24:07+0000,-40.16,-46.81,-35.71,-52.63,-55.04,-55.57
2021/02/05 01:24:59+0000,-39.63,-48.67,-35.54,-53.72,-54.08,-55.15
2021/02/05 01:25:51+0000,-39.24,-52.58,-35.41,-53.62,-54.89,-55.19
2021/02/05 01:26:43+0000,-39.15,-47.59,-35.02,-53.16,-54.82,-53.99
2021/02/05 01:27:35+0000,-37.66,-52.85,-35.70,-52.94,-54.85,-53.65
2021/02/05 01:28:27+0000,-39.34,-46.48,-35.52,-53.21,-54.31,-53.21
2021/02/05 01:29:19+0000,-37.71,-48.65,-36.03,-52.96,-54.74,-53.73
2021/02/05 01:30:12+0000,-37.96,-47.49,-35.63,-53.09,-54.89,-53.89
2021/02/05 01:31:12+0000,-38.64,-45.53,-35.70,-52.45,-54.73,-54.51
2021/02/05 01:32:04+0000,-39.13,-50.55,-36.21,-52.65,-54.20,-54.55
2021/02/05 01:32:56+0000,-40.30,-50.26,-36.42,-51.71,-54.42,-54.73
2021/02/05 01:33:48+0000,-39.92,-46.22,-36.12,-52.98,-54.66,-54.94
2021/02/05 01:34:40+0000,-39.93,-48.06,-35.68,-52.33,-54.63,-53.39
2021/02/05 01:35:32+0000,-40.70,-51.18,-36.15,-52.85,-54.60,-53.49
2021/02/05 01:36:24+0000,-39.93,-51.48,-35.76,-52.57,-54.95,-54.51
2021/02/05 01:37:16+0000,-40.53,-46.39,-35.54,-52.65,-54.56,-54.63
2021/02/05 01:38:08+0000,-39.37,-45.50,-35.46,-53.43,-53.95,-54.14
2021/02/05 01:39:00+0000,-40.30,-50.19,-35.93,-52.86,-54.34,-54.21
2021/02/05 01:39:53+0000,-40.05,-51.13,-35.42,-53.41,-54.64,-54.48
2021/02/05 01:40:45+0000,-39.28,-45.93,-36.22,-53.04,-54.46,-54.43
2021/02/05 01:41:45+0000,-39.83,-49.31,-35.41,-53.68,-54.94,-55.73
2021/02/05 01:42:37+0000,-39.35,-51.17,-35.78,-52.43,-54.95,-55.18
2021/02/05 01:43:29+0000,-39.90,-50.97,-35.48,-52.83,-53.98,-55.53
2021/02/05 01:44:21+0000,-37.19,-51.61,-35.42,-52.91,-53.56,-55.29
2021/02/05 01:45:13+0000,-39.31,-48.39,-35.66,-52.84,-54.00,-55.26
2021/02/05 01:46:05+0000,-38.82,-51.29,-35.97,-52.96,-54.60,-55.60
2021/02/05 01:46:57+0000,-37.33,-50.83,-35.41,-52.57,-54.74,-55.20
2021/02/05 01:47:49+0000,-36.96,-47.93,-36.15,-53.32,-54.72,-53.26
2021/02/05 01:48:41+0000,-39.38,-44.90,-35.87,-52.88,-54.53,-55.46
2021/02/05 01:49:33+0000,-38.82,-51.53,-36.10,-53.32,-53.77,-55.34
2021/02/05 01:50:26+0000,-39.51,-51.39,-35.27,-53.52,-54.13,-55.43
2021/02/05 01:51:26+0000,-40.08,-50.57,-35.50,-53.18,-53.64,-55.29
2021/02/05 01:52:18+0000,-39.97,-45.29,-35.49,-52.80,-53.97,-52.31
2021/02/05 01:53:10+0000,-40.39,-49.69,-35.75,-53.03,-54.31,-54.32
2021/02/05 01:54:02+0000,-39.64,-50.32,-36.00,-52.69,-54.51,-54.47
2021/02/05 01:54:54+0000,-39.90,-48.43,-35.77,-52.93,-54.79,-53.97
2021/02/05 01:55:46+0000,-40.41,-45.42,-36.08,-52.90,-52.18,-54.43
2021/02/05 01:56:38+0000,-39.59,-44.81,-35.27,-52.48,-53.06,-54.09
2021/02/05 01:57:30+0000,-40.35,-50.65,-35.84,-52.82,-53.53,-54.51
2021/02/05 01:58:22+0000,-39.13,-51.62,-35.38,-53.25,-53.23,-54.10
2021/02/05 01:59:14+0000,-39.81,-47.32,-36.01,-52.65,-53.02,-54.05
2021/02/05 02:00:07+0000,-40.12,-51.30,-35.53,-52.35,-53.84,-54.15
2021/02/05 02:01:07+0000,-40.41,-48.26,-35.43,-53.07,-53.19,-54.50
2021/02/05 02:01:59+0000,-40.30,-50.32,-35.71,-52.90,-53.70,-53.47
2021/02/05 02:02:51+0000,-38.97,-51.00,-35.84,-53.29,-53.90,-53.90
2021/02/05 02:03:43+0000,-39.25,-49.12,-35.93,-52.78,-53.50,-54.16
2021/02/05 02:04:35+0000,-40.41,-52.51,-35.55,-52.91,-54.13,-53.90
2021/02/05 02:05:27+0000,-40.04,-50.07,-35.68,-52.53,-53.32,-54.39
2021/02/05 02:06:19+0000,-40.30,-49.81,-35.21,-52.69,-53.52,-54.39
2021/02/05 02:07:11+0000,-39.82,-48.12,-35.26,-52.47,-53.47,-54.24
2021/02/05 02:08:04+0000,-40.12,-51.28,-35.76,-52.49,-53.70,-55.23
2021/02/05 02:08:56+0000,-40.60,-50.84,-35.63,-52.99,-53.80,-53.74
2021/02/05 02:09:48+0000,-39.27,-49.74,-35.71,-53.31,-53.23,-53.73
2021/02/05 02:10:40+0000,-39.97,-49.99,-35.52,-52.81,-54.16,-54.19
2021/02/05 02:11:51+0000,-39.95,-51.78,-35.76,-53.31,-53.46,-54.10
2021/02/05 02:12:43+0000,-40.00,-50.30,-35.36,-52.79,-53.73,-54.58
2021/02/05 02:13:35+0000,-39.99,-50.50,-35.62,-53.18,-54.28,-54.39
2021/02/05 02:14:27+0000,-38.91,-51.01,-35.77,-53.26,-54.08,-54.14
2021/02/05 02:15:19+0000,-39.40,-50.54,-36.02,-52.94,-53.51,-54.60
2021/02/05 02:16:11+0000,-36.97,-51.24,-35.70,-53.27,-53.57,-55.05
2021/02/05 02:17:03+0000,-38.87,-49.46,-35.71,-53.23,-53.83,-54.37
2021/02/05 02:17:55+0000,-38.64,-49.79,-35.68,-52.63,-53.80,-54.93
2021/02/05 02:18:47+0000,-40.19,-50.59,-35.57,-52.43,-54.48,-54.56
2021/02/05 02:19:40+0000,-39.34,-50.85,-34.53,-53.24,-53.97,-54.71
2021/02/05 02:20:32+0000,-39.26,-51.41,-35.17,-53.17,-53.88,-54.02
2021/02/05 02:21:32+0000,-39.86,-50.64,-34.90,-52.90,-54.26,-53.85
2021/02/05 02:22:24+0000,-39.88,-50.91,-34.93,-52.64,-53.39,-54.58
2021/02/05 02:23:16+0000,-41.28,-51.33,-34.74,-52.71,-54.02,-54.48
2021/02/05 02:24:08+0000,-40.20,-51.40,-34.76,-53.04,-54.34,-55.06
2021/02/05 02:25:00+0000,-39.66,-50.89,-34.47,-52.09,-53.92,-53.77
2021/02/05 02:25:52+0000,-40.09,-51.83,-34.53,-52.82,-54.29,-54.60
2021/02/05 02:26:44+0000,-38.54,-49.96,-35.10,-51.96,-54.06,-54.99
2021/02/05 02:27:36+0000,-38.58,-52.47,-35.21,-52.98,-54.28,-54.74
2021/02/05 02:28:28+0000,-40.47,-51.12,-35.12,-53.15,-54.18,-54.49
2021/02/05 02:29:20+0000,-40.12,-51.70,-35.18,-53.23,-54.20,-54.45
2021/02/05 02:30:12+0000,-37.79,-51.62,-35.02,-53.41,-54.49,-54.72
2021/02/05 02:31:12+0000,-37.44,-50.96,-34.51,-47.64,-53.66,-54.69
2021/02/05 02:32:04+0000,-38.69,-47.72,-34.85,-46.96,-53.65,-54.43
2021/02/05 02:32:56+0000,-38.81,-48.13,-35.11,-47.02,-54.61,-54.43
2021/02/05 02:33:48+0000,-38.33,-48.30,-34.57,-46.40,-54.02,-54.51
2021/02/05 02:34:40+0000,-37.96,-46.86,-34.28,-46.79,-54.48,-54.68
2021/02/05 02:35:32+0000,-38.30,-49.38,-34.57,-45.12,-53.85,-54.81
2021/02/05 02:36:24+0000,-38.01,-47.90,-34.85,-46.12,-54.18,-54.95
2021/02/05 02:37:16+0000,-39.06,-47.33,-34.83,-44.70,-53.93,-54.63
2021/02/05 02:38:08+0000,-38.81,-47.47,-34.57,-44.80,-54.02,-54.88
2021/02/05 02:39:00+0000,-39.31,-47.20,-35.17,-46.34,-54.77,-54.97
2021/02/05 02:39:53+0000,-37.88,-48.24,-34.43,-46.44,-53.53,-54.98
2021/02/05 02:40:45+0000,-40.37,-48.21,-34.90,-46.28,-53.16,-54.47
2021/02/05 02:41:44+0000,-39.59,-48.06,-34.38,-46.13,-53.36,-54.77
2021/02/05 02:42:36+0000,-38.83,-49.62,-34.65,-45.41,-53.65,-54.49
2021/02/05 02:43:28+0000,-38.39,-47.73,-35.03,-53.03,-53.22,-54.66
2021/02/05 02:44:20+0000,-39.21,-48.77,-35.06,-52.64,-52.84,-54.80
2021/02/05 02:45:12+0000,-40.13,-48.20,-34.92,-53.00,-54.24,-55.09
2021/02/05 02:46:04+0000,-39.67,-48.75,-34.79,-52.54,-54.30,-54.96
2021/02/05 02:46:56+0000,-38.67,-48.80,-34.69,-52.66,-53.64,-54.78
2021/02/05 02:47:48+0000,-39.87,-48.32,-34.62,-53.20,-53.36,-54.39
2021/02/05 02:48:40+0000,-39.63,-49.30,-34.97,-52.80,-54.27,-54.51
2021/02/05 02:49:32+0000,-39.58,-47.24,-34.86,-53.16,-53.62,-54.93
2021/02/05 02:50:25+0000,-39.34,-48.33,-34.92,-53.32,-53.99,-54.13
2021/02/05 02:51:25+0000,-39.53,-48.32,-34.83,-52.65,-54.05,-54.64
2021/02/05 02:52:17+0000,-39.09,-49.06,-34.84,-52.82,-54.07,-54.58
2021/02/05 02:53:09+0000,-39.57,-48.29,-34.61,-53.02,-53.91,-54.90
2021/02/05 02:54:01+0000,-38.35,-48.35,-34.85,-52.53,-53.81,-54.65
2021/02/05 02:54:53+0000,-38.88,-48.48,-34.52,-52.22,-52.95,-54.90
2021/02/05 02:55:45+0000,-40.00,-47.67,-35.26,-52.46,-54.18,-54.97
2021/02/05 02:56:37+0000,-38.90,-48.17,-34.90,-52.90,-54.50,-54.92
2021/02/05 02:57:30+0000,-39.01,-47.82,-35.41,-52.94,-54.50,-54.53
2021/02/05 02:58:22+0000,-39.29,-49.23,-35.23,-52.69,-53.97,-52.50
2021/02/05 02:59:14+0000,-38.32,-49.02,-34.95,-52.46,-54.01,-54.66
2021/02/05 03:00:06+0000,-38.06,-49.03,-35.30,-52.65,-54.59,-54.65
2021/02/05 03:01:07+0000,-38.56,-48.56,-35.54,-53.52,-54.69,-54.42
2021/02/05 03:01:59+0000,-39.97,-48.42,-34.76,-52.77,-54.80,-54.29
2021/02/05 03:02:51+0000,-39.29,-48.85,-35.05,-52.61,-53.66,-54.41
2021/02/05 03:03:43+0000,-40.01,-47.60,-34.78,-52.45,-53.94,-54.77
2021/02/05 03:04:35+0000,-38.09,-49.07,-34.85,-52.83,-54.07,-54.47
2021/02/05 03:05:27+0000,-38.85,-48.16,-34.25,-53.28,-54.75,-55.02
2021/02/05 03:06:19+0000,-39.19,-47.92,-34.71,-51.84,-54.07,-54.55
2021/02/05 03:07:11+0000,-37.31,-49.17,-35.12,-52.46,-54.42,-54.39
2021/02/05 03:08:03+0000,-38.78,-49.44,-35.30,-52.50,-53.64,-54.87
2021/02/05 03:08:55+0000,-38.93,-49.65,-35.46,-52.83,-54.37,-54.19
2021/02/05 03:09:48+0000,-39.17,-47.72,-34.64,-52.81,-53.80,-54.30
2021/02/05 03:10:40+0000,-38.35,-47.36,-34.27,-52.23,-54.28,-54.10
2021/02/05 03:11:41+0000,-39.19,-48.72,-33.82,-52.88,-54.52,-54.65
2021/02/05 03:12:33+0000,-39.28,-48.93,-34.68,-52.95,-54.55,-54.81
2021/02/05 03:13:25+0000,-39.37,-48.07,-34.81,-53.44,-54.95,-54.63
2021/02/05 03:14:17+0000,-39.71,-47.89,-35.26,-52.80,-54.23,-54.69
2021/02/05 03:15:09+0000,-38.70,-48.04,-35.12,-52.80,-53.97,-54.23
2021/02/05 03:16:01+0000,-38.12,-49.14,-35.50,-52.51,-54.48,-54.84
2021/02/05 03:16:53+0000,-39.12,-48.53,-34.71,-52.61,-54.50,-54.49
2021/02/05 03:17:45+0000,-40.77,-48.11,-35.58,-52.51,-54.02,-54.42
2021/02/05 03:18:37+0000,-38.87,-48.03,-35.04,-51.94,-54.46,-54.63
2021/02/05 03:19:29+0000,-40.47,-48.11,-34.95,-52.85,-54.28,-54.14
2021/02/05 03:20:21+0000,-39.58,-47.89,-35.22,-52.88,-53.87,-54.22
2021/02/05 03:21:22+0000,-40.24,-48.76,-34.55,-52.75,-54.42,-54.58
2021/02/05 03:22:14+0000,-40.18,-48.60,-35.03,-52.47,-53.94,-54.88
2021/02/05 03:23:06+0000,-39.97,-48.43,-34.90,-51.96,-53.99,-53.73
2021/02/05 03:23:58+0000,-37.94,-49.62,-34.96,-52.53,-54.27,-53.83
2021/02/05 03:24:50+0000,-39.21,-47.44,-35.15,-52.10,-54.49,-53.87
2021/02/05 03:25:42+0000,-37.71,-49.00,-35.09,-52.41,-54.55,-54.82
2021/02/05 03:26:34+0000,-38.43,-48.57,-35.60,-52.80,-54.64,-53.97
2021/02/05 03:27:26+0000,-37.72,-47.90,-35.34,-52.56,-54.50,-54.35
2021/02/05 03:28:18+0000,-37.86,-47.42,-34.79,-52.20,-54.76,-54.28
2021/02/05 03:29:10+0000,-37.72,-48.88,-35.35,-52.82,-55.26,-54.32
2021/02/05 03:30:03+0000,-37.82,-49.29,-34.88,-52.78,-54.43,-53.82
2021/02/05 03:31:03+0000,-37.06,-49.57,-35.20,-52.52,-54.25,-54.08
2021/02/05 03:31:55+0000,-38.32,-47.93,-35.92,-52.92,-54.29,-54.11
2021/02/05 03:32:47+0000,-38.60,-47.94,-35.60,-52.54,-54.04,-53.87
2021/02/05 03:33:39+0000,-38.51,-48.05,-35.41,-53.03,-54.80,-54.14
2021/02/05 03:34:32+0000,-39.35,-48.02,-35.77,-52.79,-54.26,-54.32
2021/02/05 03:35:24+0000,-38.12,-48.75,-35.16,-53.06,-54.31,-54.33
2021/02/05 03:36:16+0000,-39.69,-48.48,-35.24,-52.36,-53.87,-54.35
2021/02/05 03:37:08+0000,-38.19,-48.68,-35.24,-52.96,-53.12,-54.66
2021/02/05 03:38:00+0000,-39.11,-47.90,-35.45,-52.22,-54.28,-54.76
2021/02/05 03:38:52+0000,-37.52,-48.34,-34.62,-52.85,-53.46,-54.71
2021/02/05 03:39:44+0000,-38.19,-48.25,-35.14,-52.84,-54.44,-54.37
2021/02/05 03:40:36+0000,-38.16,-47.89,-34.98,-53.75,-54.03,-54.16
2021/02/05 03:41:37+0000,-38.61,-48.71,-35.49,-53.19,-53.98,-54.25
2021/02/05 03:42:29+0000,-37.25,-47.34,-34.84,-52.83,-53.48,-54.42
2021/02/05 03:43:21+0000,-38.37,-48.66,-34.88,-53.33,-54.33,-54.39
2021/02/05 03:44:13+0000,-37.68,-48.04,-34.92,-52.58,-54.00,-54.17
2021/02/05 03:45:05+0000,-38.02,-48.63,-35.11,-53.13,-53.54,-54.63
2021/02/05 03:45:57+0000,-37.67,-47.96,-34.98,-52.88,-54.01,-54.71
2021/02/05 03:46:49+0000,-36.73,-47.60,-35.21,-53.23,-54.25,-54.24
2021/02/05 03:47:41+0000,-37.39,-48.85,-35.10,-52.78,-54.49,-54.58
2021/02/05 03:48:33+0000,-37.08,-47.63,-35.10,-52.88,-54.53,-54.39
2021/02/05 03:49:25+0000,-38.28,-48.29,-35.64,-52.54,-54.03,-53.55
2021/02/05 03:50:17+0000,-37.74,-47.43,-34.95,-51.39,-53.85,-54.58
2021/02/05 03:51:18+0000,-37.28,-47.14,-35.16,-52.16,-54.25,-54.31
2021/02/05 03:52:10+0000,-36.33,-49.28,-35.29,-53.05,-54.51,-53.81
2021/02/05 03:53:02+0000,-38.01,-47.65,-35.26,-52.44,-53.99,-54.31
2021/02/05 03:53:54+0000,-36.85,-49.64,-34.82,-52.61,-53.26,-54.85
2021/02/05 03:54:46+0000,-37.89,-47.43,-35.06,-52.42,-54.69,-54.26
2021/02/05 03:55:38+0000,-36.90,-48.18,-34.39,-52.81,-54.25,-54.57
2021/02/05 03:56:30+0000,-37.85,-49.13,-35.03,-52.07,-53.88,-54.10
2021/02/05 03:57:22+0000,-38.76,-47.37,-34.59,-52.68,-54.15,-54.02
2021/02/05 03:58:14+0000,-37.95,-47.98,-34.42,-52.48,-53.62,-54.29
2021/02/05 03:59:06+0000,-36.39,-48.03,-34.46,-52.93,-53.44,-54.40
2021/02/05 03:59:58+0000,-36.12,-49.20,-35.05,-52.92,-54.52,-54.08
2021/02/05 04:00:50+0000,-36.97,-48.14,-34.99,-53.38,-54.33,-54.42
2021/02/05 04:01:51+0000,-36.98,-51.51,-34.23,-52.75,-54.14,-54.21
2021/02/05 04:02:43+0000,-38.58,-51.44,-35.59,-53.13,-54.60,-53.94
2021/02/05 04:03:35+0000,-36.61,-51.81,-36.12,-51.66,-55.14,-54.52
2021/02/05 04:04:27+0000,-35.79,-51.11,-35.79,-53.11,-54.54,-54.21
2021/02/05 04:05:19+0000,-36.79,-51.48,-35.71,-52.58,-54.58,-53.95
2021/02/05 04:06:11+0000,-36.65,-51.28,-36.03,-53.27,-54.45,-54.30
2021/02/05 04:07:03+0000,-38.46,-51.92,-35.50,-52.96,-55.63,-50.45
2021/02/05 04:07:55+0000,-37.16,-50.83,-34.85,-53.46,-55.54,-54.25
2021/02/05 04:08:48+0000,-37.35,-51.51,-34.58,-53.48,-56.19,-55.34
2021/02/05 04:09:40+0000,-37.16,-50.46,-34.64,-53.12,-55.48,-54.60
2021/02/05 04:10:32+0000,-38.29,-51.60,-34.93,-53.08,-56.09,-54.32
2021/02/05 04:11:32+0000,-38.94,-51.78,-34.58,-52.39,-55.83,-54.60
2021/02/05 04:12:24+0000,-37.39,-51.55,-35.88,-52.76,-55.13,-53.47
2021/02/05 04:13:16+0000,-36.45,-51.26,-35.39,-52.98,-54.56,-52.28
2021/02/05 04:14:08+0000,-38.86,-50.84,-35.46,-52.43,-54.75,-51.40
2021/02/05 04:15:00+0000,-38.15,-51.69,-35.38,-52.84,-54.90,-52.19
2021/02/05 04:15:52+0000,-36.78,-51.12,-35.43,-53.05,-55.16,-52.40
2021/02/05 04:16:44+0000,-38.19,-51.51,-34.85,-52.78,-55.46,-53.35
2021/02/05 04:17:36+0000,-37.83,-51.62,-35.11,-53.70,-54.43,-52.84
2021/02/05 04:18:28+0000,-37.58,-51.66,-34.19,-53.87,-54.94,-54.75
2021/02/05 04:19:20+0000,-37.77,-51.80,-35.32,-53.81,-54.61,-53.74
2021/02/05 04:20:13+0000,-38.60,-52.28,-34.72,-53.49,-54.36,-53.61
2021/02/05 04:21:13+0000,-38.89,-51.87,-34.97,-53.77,-55.30,-53.99
2021/02/05 04:22:05+0000,-38.29,-51.94,-35.71,-53.37,-54.61,-53.32
2021/02/05 04:22:57+0000,-37.68,-51.76,-34.63,-53.81,-55.10,-54.08
2021/02/05 04:23:49+0000,-37.34,-52.14,-34.82,-53.28,-54.28,-54.28
2021/02/05 04:24:41+0000,-38.43,-51.86,-35.44,-53.44,-55.18,-54.13
2021/02/05 04:25:33+0000,-37.24,-51.12,-34.80,-53.00,-54.90,-54.66
2021/02/05 04:26:25+0000,-37.85,-51.45,-35.29,-53.14,-54.90,-54.85
2021/02/05 04:27:17+0000,-38.43,-50.39,-35.37,-47.43,-55.22,-54.22
2021/02/05 04:28:09+0000,-35.84,-51.68,-34.76,-46.26,-55.25,-54.42
2021/02/05 04:29:01+0000,-36.83,-50.72,-34.84,-46.26,-55.68,-54.28
2021/02/05 04:29:53+0000,-36.33,-51.81,-35.78,-46.20,-55.79,-54.73
2021/02/05 04:30:45+0000,-38.48,-50.55,-35.06,-47.81,-55.41,-54.44
2021/02/05 04:31:46+0000,-37.72,-50.19,-35.20,-46.12,-55.15,-54.72
2021/02/05 04:32:38+0000,-35.02,-51.08,-34.78,-47.08,-55.56,-54.86
2021/02/05 04:33:30+0000,-35.02,-51.40,-34.87,-46.13,-55.04,-54.67
2021/02/05 04:34:22+0000,-35.24,-49.70,-34.94,-44.92,-55.18,-54.16
2021/02/05 04:35:14+0000,-36.95,-49.35,-35.00,-46.58,-54.49,-54.75
2021/02/05 04:36:06+0000,-38.11,-50.75,-35.10,-46.01,-53.53,-54.51
2021/02/05 04:36:58+0000,-37.35,-49.78,-35.18,-46.35,-54.17,-54.54
2021/02/05 04:37:50+0000,-36.65,-51.27,-35.20,-46.47,-55.64,-54.76
2021/02/05 04:38:42+0000,-37.99,-51.08,-35.44,-46.92,-54.08,-55.09
2021/02/05 04:39:34+0000,-37.96,-50.51,-35.34,-46.25,-54.53,-54.69
2021/02/05 04:40:26+0000,-37.31,-50.62,-35.04,-45.54,-55.23,-54.67
2021/02/05 04:41:26+0000,-37.02,-51.16,-35.55,-44.14,-54.92,-54.86
2021/02/05 04:42:18+0000,-35.89,-50.93,-35.39,-45.50,-54.61,-54.94
2021/02/05 04:43:10+0000,-37.04,-51.38,-35.99,-44.10,-53.84,-54.28
2021/02/05 04:44:02+0000,-36.71,-50.46,-36.13,-45.74,-53.86,-55.02
2021/02/05 04:44:54+0000,-36.74,-50.00,-35.40,-44.32,-53.67,-54.94